Satellite: NO-44
Catalog number: 26931
Epoch time:      11306.62531161
Element set:    0887
Inclination:      067.0540 deg
RA of node:       346.8023 deg
Eccentricity:    0.0004841
Arg of perigee:   263.2466 deg
Mean anomaly:     096.8092 deg
Mean motion:   14.29704826 rev/day
Decay rate:       3.98e-06 rev/day^2
Epoch rev:           52671
Checksum:              310

Satellite: SO-50
Catalog number: 27607
Epoch time:      11306.88130189
Element set:    0606
Inclination:      064.5597 deg
RA of node:       266.1704 deg
Eccentricity:    0.0082578
Arg of perigee:   292.5465 deg
Mean anomaly:     066.6967 deg
Mean motion:   14.71936034 rev/day
Decay rate:      1.667e-05 rev/day^2
Epoch rev:           47650
Checksum:              342

Satellite: CO-55
Catalog number: 27844
Epoch time:      11306.55342269
Element set:    0235
Inclination:      098.7068 deg
RA of node:       313.2554 deg
Eccentricity:    0.0009738
Arg of perigee:   155.5214 deg
Mean anomaly:     204.6427 deg
Mean motion:   14.20878324 rev/day
Decay rate:       3.75e-06 rev/day^2
Epoch rev:           43256
Checksum:              312

Satellite: CO-57
Catalog number: 27848
Epoch time:      11306.51859222
Element set:    0181
Inclination:      098.7138 deg
RA of node:       312.4599 deg
Eccentricity:    0.0009710
Arg of perigee:   160.2040 deg
Mean anomaly:     199.9509 deg
Mean motion:   14.20649656 rev/day
Decay rate:       3.27e-06 rev/day^2
Epoch rev:           43250
Checksum:              316

Satellite: AO-51
Catalog number: 28375
Epoch time:      11306.93643674
Element set:    0112
Inclination:      098.1156 deg
RA of node:       278.2168 deg
Eccentricity:    0.0084614
Arg of perigee:   010.0516 deg
Mean anomaly:     350.2384 deg
Mean motion:   14.40814638 rev/day
Decay rate:       4.40e-06 rev/day^2
Epoch rev:           38604
Checksum:              291

Satellite: CP3
Catalog number: 31129
Epoch time:      11306.53997381
Element set:    0010
Inclination:      097.8927 deg
RA of node:       322.7163 deg
Eccentricity:    0.0102787
Arg of perigee:   110.9706 deg
Mean anomaly:     250.2565 deg
Mean motion:   14.52646878 rev/day
Decay rate:      1.070e-05 rev/day^2
Epoch rev:           24092
Checksum:              300

Satellite: CO-65
Catalog number: 32785
Epoch time:      11306.41163612
Element set:    0140
Inclination:      097.8337 deg
RA of node:       007.5534 deg
Eccentricity:    0.0015974
Arg of perigee:   085.4282 deg
Mean anomaly:     274.8772 deg
Mean motion:   14.82291693 rev/day
Decay rate:      2.198e-05 rev/day^2
Epoch rev:           19001
Checksum:              314

Satellite: PRISM
Catalog number: 33493
Epoch time:      11306.91610933
Element set:    0110
Inclination:      098.1431 deg
RA of node:       077.7403 deg
Eccentricity:    0.0018858
Arg of perigee:   314.3168 deg
Mean anomaly:     045.6518 deg
Mean motion:   14.82303258 rev/day
Decay rate:      3.927e-05 rev/day^2
Epoch rev:           15006
Checksum:              283

Satellite: SOHLA-1
Catalog number: 33496
Epoch time:      11306.94151702
Element set:    0569
Inclination:      098.0905 deg
RA of node:       055.4570 deg
Eccentricity:    0.0007485
Arg of perigee:   048.1576 deg
Mean anomaly:     312.0268 deg
Mean motion:   14.69722963 rev/day
Decay rate:       6.50e-06 rev/day^2
Epoch rev:           14886
Checksum:              317

Satellite: TISAT-1
Catalog number: 36799
Epoch time:      11306.87116154
Element set:    0379
Inclination:      098.0886 deg
RA of node:       016.4145 deg
Eccentricity:    0.0015217
Arg of perigee:   184.8817 deg
Mean anomaly:     175.2245 deg
Mean motion:   14.80955581 rev/day
Decay rate:      2.625e-05 rev/day^2
Epoch rev:           07083
Checksum:              325

Satellite: STUDSAT
Catalog number: 36801
Epoch time:      11306.92001180
Element set:    0271
Inclination:      098.0924 deg
RA of node:       016.4525 deg
Eccentricity:    0.0013807
Arg of perigee:   173.5281 deg
Mean anomaly:     186.6141 deg
Mean motion:   14.81643429 rev/day
Decay rate:      6.963e-05 rev/day^2
Epoch rev:           07083
Checksum:              280

Satellite: OOREOS
Catalog number: 37224
Epoch time:      11283.12196780
Element set:    0302
Inclination:      071.9656 deg
RA of node:       145.3580 deg
Eccentricity:    0.0018647
Arg of perigee:   057.9354 deg
Mean anomaly:     302.3616 deg
Mean motion:   14.77183931 rev/day
Decay rate:       9.55e-06 rev/day^2
Epoch rev:           04784
Checksum:              307

Satellite: FO-69
Catalog number: 37227
Epoch time:      11306.46083341
Element set:    0014
Inclination:      071.9687 deg
RA of node:       094.3610 deg
Eccentricity:    0.0014766
Arg of perigee:   028.8783 deg
Mean anomaly:     331.3193 deg
Mean motion:   14.76727385 rev/day
Decay rate:      1.152e-05 rev/day^2
Epoch rev:           00247
Checksum:              306

Satellite: NANOSALD
Catalog number: 37361
Epoch time:      11242.25215765
Element set:    0351
Inclination:      071.9735 deg
RA of node:       221.4469 deg
Eccentricity:    0.0025730
Arg of perigee:   245.3422 deg
Mean anomaly:     114.7284 deg
Mean motion:   15.22200108 rev/day
Decay rate:    1.80112e-03 rev/day^2
Epoch rev:           03331
Checksum:              248

